Simultaneous Nadir Overpasses (SNOs) Predictions

Prediction of SNOs between GOES-15 and TERRA Satellite Orbit:

Table of predicted SNOs for the next 14.0 days since TLE Epoch: 11/12/2011
Index Date Time (GOES-15) GOES-15 Lat,Lon TERRA Lat,Lon Distance(km) Time Diff (sec)
1 11/14/2011 05:57:28 0.19,-111.42 0.10,-111.69 30.96 80
2 11/16/2011 05:42:40 0.19,-113.02 1.07,-108.79 480.93 80
3 11/16/2011 18:06:37 -0.17,-113.63 -0.11,-113.97 38.22 80
4 11/18/2011 17:51:48 -0.18,-115.23 -1.05,-111.07 472.69 80
5 11/19/2011 06:15:52 0.16,-115.44 -0.00,-116.26 93.43 80
6 11/21/2011 06:01:03 0.17,-117.04 0.97,-113.37 418.16 80
7 11/21/2011 18:24:59 -0.15,-117.66 0.04,-118.54 99.76 80
8 11/23/2011 18:10:09 -0.16,-119.24 -0.91,-115.63 410.65 80
9 11/24/2011 06:34:12
